TELSTAR 19V

Last updated on Tue Oct 08 2024 00:02:41 GMT+0000 (Coordinated Universal Time)

1 43562U 18059A 24281.31603146 -.00000268 00000+0 00000+0 0 9999 2 43562 0.0191 197.0377 0002766 323.8945 266.3202 1.00269742 22941
UTC large
Height (km)
Speed (km/s)
/
Latitude / Longitude
Inclination (degrees)
Orbital Period (minutes)
Azimuth
Elevation
Range (km)
Doppler Factor

Next 0 passes for location: London (51.5072 / 0.1276)

Sorry there are no passes over London.